sat.trackr.live / text

‹ back to catalog

STARLINK-30929

NORAD 58386 · 2023-178N

PAYLOAD ACTIVE UNKNOWN

§ Identity

Operator
Country
US
Launch date
2023-11-20
Launch site
AFWTR
Launch vehicle
Mass (kg)
RCS (m²)

Purposes: comms

External: N2YO · Heavens-Above · Gunter

§ Orbital elements

Epoch: 2026-05-24T22:56:11.548608Z

Period
93.85 min
Inclination
53.1608°
Eccentricity
0.0001182
Mean motion
15.34380639 rev/d
Perigee alt
462.0 km
Apogee alt
463.6 km
Semi-major
6,840.9 km
B*
8.8013e-5
RAAN
6.2287°
Arg perigee
76.2089°
Mean anomaly
283.9045°
Rev number
14,155

§ Raw data

STARLINK-309291 58386U 23178N   26144.95568922  .00002597  00000+0  88013-4 0  99902 58386  53.1608   6.2287 0001182  76.2089 283.9045 15.34380639141553

JSON: /api/v1/satellites/58386 · /tle

For live sub-satellite position, see the globe view (requires WebGL).

§ Visibility from observer

Set your observer location to see the next 7 days of passes ≥ 10°. The values pass through the URL so the page stays shareable.

No JS? Fill the form by hand. The geolocation button needs JavaScript.